www.pogodaiklimat.ru
ПОГОДА в Хоторне
Время
и дата
19:53 24.05
20:53 24.05
21:53 24.05
22:53 24.05
23:53 24.05
00:53 25.05
01:02 25.05
01:44 25.05
01:53 25.05
02:53 25.05
03:53 25.05
04:29 25.05
04:53 25.05
05:53 25.05
06:25 25.05
06:38 25.05
06:53 25.05
07:42 25.05
07:53 25.05
08:53 25.05
09:53 25.05
10:08 25.05
10:50 25.05
10:53 25.05
11:03 25.05
11:53 25.05
12:53 25.05
13:53 25.05
14:53 25.05
15:53 25.05
16:53 25.05
17:53 25.05
18:53 25.05
19:53 25.05
20:53 25.05
21:53 25.05
22:53 25.05
23:53 25.05
00:29 26.05
00:53 26.05
01:53 26.05
02:53 26.05
03:53 26.05
04:53 26.05
05:53 26.05
06:53 26.05
07:53 26.05
08:53 26.05
Ветер
(напр.,м/с)
Видим. Явления Облачность Т
(С)
Тd
(С)
f
(%)
Тe
(С)
Тes
(С)
Комфортность P
(гПа)
Po
(гПа)
Тmin
(С)
Tmax
(С)
R
(мм)
R24
(мм)
S
(см)
ЮЗ 3 16 км ясно +16.1 +10.6 70 +16 +16 1013.3 1010.8
ЮЗ 3 16 км ясно +15.6 +10.0 69 +15 +15 1013.8 1011.5
З 2 16 км ясно +15.0 +10.6 75 +15 +15 1014.1 1011.8 +15.0 +18.3
З 3 16 км 2/2 480 м +14.4 +10.6 78 +13 +13 1014.4 1012.2
16 км ясно +13.9 +10.6 80 +14 +14 1014.3 1011.8
З 3 16 км 5/5 720 м +14.4 +10.0 75 +14 +14 1014.2 1011.8
нст 2 16 км 8/8 720 м +13.9 +10.6 80 +13 +13 1011.8
ЮЗ 2 16 км 10/10 420 м +13.9 +10.6 80 +13 +13 1011.8
ЮЗ 2 16 км 10/10 420 м +14.4 +10.6 78 +14 +14 1014.1 1011.8
нст 2 16 км 10/10 450 м +13.9 +10.6 80 +13 +13 1014.3 1011.8
З 2 16 км 10/10 810 м +14.4 +10.6 78 +14 +14 1014.2 1011.8 +13.9 +15.0
З 2 16 км 10/10 900 м +14.4 +10.0 75 +14 +14 1011.8
З 2 16 км 10/10 930 м +14.4 +10.0 75 +14 +14 1014.3 1011.8
З 2 16 км 10/10 1050 м +14.4 +10.0 75 +14 +14 1015.1 1012.8
штиль 0 16 км 10/10 870 м +14.4 +10.0 75 +14 +14 1012.8
штиль 0 16 км 10/10 870 м +15.0 +10.0 72 +15 +15 1013.2
ЮЗ 2 16 км 10/10 750 м +15.0 +10.0 72 +15 +15 1015.6 1013.2
штиль 0 16 км 10/10 780 м +15.6 +10.0 69 +15 +15 1013.9
ЮЗ 2 16 км 10/10 780 м +16.1 +10.0 67 +16 +16 1016.2 1013.9
З 2 16 км 8/8 840 м +16.7 +9.4 62 +17 +19 1016.2 1013.9
нст 3 16 км 10/10 870 м +17.8 +10.0 60 +18 +18 1016.4 1014.2 +14.4 +17.8
З 4 16 км 5/5 870 м +17.8 +10.0 60 +18 +24 1014.2
нст 3 16 км 8/8 870 м +18.0 +10.0 59 +18 +21 1014.2
ЮЗ 4 16 км 8/8 870 м +18.3 +10.0 58 +18 +21 1016.6 1014.2
ЮЗ 3 16 км 8/8 870 м +18.3 +10.0 58 +19 +22 1014.2
ЮЗ 6 16 км 8/8 840 м +19.4 +10.6 57 +20 +22 1016.5 1014.2
ЮЗ 4
{7}
16 км ясно +18.9 +10.0 56 +20 +34 опасность
простуды
1016.3 1013.9
З 5 16 км ясно +19.4 +9.4 52 +20 +31 1015.9 1013.5
З 5 16 км ясно +18.3 +10.0 58 +18 +27 1015.5 1013.2
ЮЗ 5 16 км ясно +18.3 +10.0 58 +18 +24 1015.3 1012.8 +17.8 +19.4
ЮЗ 5 16 км ясно +17.2 +10.0 63 +17 +20 1015.0 1012.8
З 4 16 км ясно +17.2 +10.6 65 +17 +19 1015.0 1012.8
ЮЗ 3 16 км ясно +16.1 +11.1 72 +16 +16 1015.4 1013.2
З 2 16 км ясно +15.6 +11.7 78 +16 +16 1015.8 1013.5
ЮЗ 2 16 км ясно +15.6 +12.2 80 +16 +16 1016.3 1013.9
З 2 16 км ясно +15.6 +11.1 75 +16 +16 1016.3 1013.9 +15.6 +18.3
ЮЗ 2 16 км ясно +15.6 +11.1 75 +16 +16 1016.0 1013.9
штиль 0 16 км ясно +15.0 +11.7 81 +15 +15 1015.9 1013.5
штиль 0 16 км 8/8 630 м +15.0 +11.7 81 +15 +15 1013.5
штиль 0 16 км 10/10 630 м +15.0 +11.7 81 +15 +15 1015.8 1013.5
штиль 0 16 км 10/10 480 м +15.6 +11.7 78 +15 +15 1015.6 1013.2
штиль 0 16 км 10/10 510 м +15.6 +11.1 75 +15 +15 1015.3 1013.2
штиль 0 16 км 10/10 690 м +15.6 +11.1 75 +15 +15 1015.3 1013.2 +15.0 +16.1
штиль 0 16 км 10/10 510 м +16.1 +11.1 72 +16 +16 1015.8 1013.5
штиль 0 16 км 10/10 510 м +16.1 +11.1 72 +16 +16 1016.3 1013.9
Ю 2 16 км 10/10 690 м +16.1 +10.6 70 +16 +16 1016.7 1014.2
Ю 2 16 км 10/10 810 м +16.7 +10.6 67 +17 +17 1017.1 1014.9
штиль 0 16 км 10/10 810 м +17.2 +10.6 65 +17 +17 1017.2 1014.9
Местоположение метеостанции Hawthorne Municipal Airport: широта 33.9236 долгота -118.3319 высота над уровнем моря 19 м.
В архиве по умолчанию представлена погода в Хоторне за последние 1-2 суток. Обновление информации о фактической погоде в базе происходит ежечасно! Архивные данные за месяц целиком и за предыдущие месяцы Вы можете получить, выбрав интересующий диапазон дат из раскрывающегося списка и нажав кнопку "Ввод!".
Внимание! Архив погоды МЕТАР в базе сайта по станциям, не включенным в климатический монитор, хранится не более 60 дней. Нет смысла пытаться выбрать более раннюю дату.
*Определитесь, кто Вы:
Внимание! Время в таблицах - местное (без учета летнего времени). Для получения всемирного времени необходимо вычесть поправку, которая равна -8 ч.
Смотрите также архив погоды в соседних городах и на ближайших метеорологических станциях:
Партнеры нашего сайта:      
Пояснения к столбцам:
  • Ветер - указаны скорость ветра в м/с - средняя за 10 мин, порывы в срок и между сроками (в фигурных скобках) и направление, откуда дует ветер: С - северный,
  • СВ - северо-восточный, В - восточный, ЮВ - юго-восточный, Ю - южный, ЮЗ - юго-западный, З - западный, СЗ - северо-западный.
  • Видимость - горизонтальная дальность видимости в метрах или километрах. При видимости от 1 до 10 км при отсутствии осадков обычно наблюдается дымка, при ухудшении видимости до 1 км и менее - туман. В сухую погоду видимость может ухудшаться дымом, пылью или мглою.
  • Явления - указаны атмосферные явления, наблюдавшиеся в срок или в последний час перед сроком; фигурными скобками обозначены явления, наблюдавшиеся между сроками (за 1-3 часа до срока); квадратными скобками обозначены град или гололедные отложения с указанием их диаметра в мм.
  • Облачность - указаны через наклонную черту общая и нижняя облачность в баллах и высота нижней границы облаков в метрах; квадратными скобками обозначены формы облаков: Ci - перистые, Cs - перисто-слоистые, Cc - перисто-кучевые, Ac - высококучевые, As - высокослоистые, Sc - слоисто-кучевые, Ns - слоисто-дождевые, Cu - кучевые, Cb - кучево-дождевые. Подробнее классификацию облаков см. в Атласе облаков (PDF).
  • T - Температура воздуха - температура, измеренная на высоте 2 м над землей.
  • Td - Температура точки росы - температура, при понижении до которой содержащийся в воздухе водяной пар достигнет насыщения.
  • f - Относительная влажность воздуха - влажноcть воздуха, измеренная на высоте 2 м над землей.
  • Te - Эффективная температура - температура, которую ощущает одетый по сезону человек в тени. Характеристика душности погоды. При расчете учитывается влияние влажности воздуха и скорости ветра на теплоощущения человека.
  • Tes - Эффективная температура на солнце - температура, которую ощущает человек, с поправкой на солнечный нагрев. Характеристика знойности погоды. Зависит от высоты солнца над горизонтом, облачности и скорости ветра. Ночью, в пасмурную погоду, а также при ветре 12 м/с и более поправка равна нулю.
  • P - Атмосферное давление - приведенное к уровню моря атмосферное давление.
  • Po - Атмосферное давление - измеренное на уровне метеостанции атмосферное давление.
  • Tmin - Минимальная температура - минимум температуры воздуха на высоте 2 м над землей.
  • Tmax - Максимальная температура - максимум температуры воздуха на высоте 2 м над землей.
  • R - Количество осадков - Количество выпавших осадков за период времени, мм. При наведении курсора мыши на число - период времени, за который выпало указанное количество осадков.
  • R24 - Количество осадков - Количество выпавших осадков за 24 часа, мм.
  • S - Снежный покров - Высота снежного покрова, см. При наведении курсора мыши на число - состояние снежного покрова и степень покрытия местности в баллах.